COSMOS 1933

Last updated on Thu Nov 21 2024 00:02:12 GMT+0000 (Coordinated Universal Time)

1 18958U 88020A 24325.51620444 .00006620 00000+0 37830-3 0 9998 2 18958 82.5148 358.1533 0005432 60.3228 299.8543 15.12530894978455
UTC large
Height (km)
Speed (km/s)
/
Latitude / Longitude
Inclination (degrees)
Orbital Period (minutes)
Azimuth
Elevation
Range (km)
Doppler Factor

Next 0 passes for location: London (51.5072 / 0.1276)

Sorry there are no passes over London.